period_start,C,m1,H,J0,J1,J2,J3,J4,J5,JA,JB,JC,JD,JJ,JK,JN,#
2017-01-04 00:04:38,0.41,0.85,0.00,19.98,24.23,27.70,14.61,46.74,1013.86,2039.03,3261.33,2897.16,3285.62,600.10,600.68,1.80,0000 0000 0000 0000 000000
2017-01-04 00:09:39,0.42,0.87,0.00,19.95,24.22,27.69,14.67,46.83,1013.74,2039.04,3252.76,2891.23,3278.97,600.21,600.73,1.85,0000 0000 0000 0000 000000
2017-01-04 00:14:40,0.42,0.89,0.00,19.94,24.22,27.61,14.67,46.77,1013.77,2039.04,3244.43,2885.24,3272.07,600.04,600.48,1.90,0000 0000 0000 0000 000000
2017-01-04 00:19:41,0.42,0.91,0.00,19.93,24.21,27.63,14.65,46.88,1013.89,2039.05,3235.76,2879.42,3265.49,599.97,600.67,1.95,0000 0000 0000 0000 000000
2017-01-04 00:24:42,0.42,0.94,0.00,19.91,24.20,27.68,14.62,46.77,1013.82,2039.07,3227.13,2873.50,3258.93,599.98,600.64,2.00,0000 0000 0000 0000 000000
2017-01-04 00:29:44,0.41,0.96,0.00,19.92,24.20,27.52,14.68,46.89,1013.88,2039.10,3218.95,2867.77,3252.41,600.23,600.91,2.05,0000 0000 0000 0000 000000
2017-01-04 00:34:45,0.39,0.98,0.00,19.90,24.20,27.64,14.69,46.78,1013.71,2039.11,3211.21,2862.28,3246.21,600.24,600.94,2.10,0000 0000 0000 0000 000000
2017-01-04 00:39:46,0.40,1.00,0.00,19.88,24.19,27.62,14.69,46.73,1013.71,2039.14,3203.45,2856.75,3239.85,600.55,600.91,2.15,0000 0000 0000 0000 000000
2017-01-04 00:44:48,0.41,1.02,0.00,19.88,24.18,27.61,14.67,46.74,1013.70,2039.07,3195.43,2851.00,3233.32,600.37,600.97,2.20,0000 0000 0000 0000 000000
2017-01-04 00:49:49,0.39,1.04,0.00,19.87,24.17,27.44,14.66,46.78,1013.73,2039.08,3187.61,2845.44,3227.01,600.18,600.89,2.25,0000 0000 0000 0000 000000
2017-01-04 00:54:50,0.40,1.06,0.00,19.87,24.17,27.55,14.63,46.83,1013.71,2039.05,3179.92,2839.94,3220.71,599.83,600.51,2.30,0000 0000 0000 0000 000000
2017-01-04 00:59:51,0.38,1.08,0.00,19.86,24.17,27.58,14.64,46.77,1013.70,2039.03,3172.45,2834.61,3214.74,599.84,600.62,2.35,0000 0000 0000 0000 000000
2017-01-04 01:04:53,0.38,1.10,0.00,19.84,24.17,27.67,14.69,46.73,1013.69,2039.09,3165.40,2829.54,3208.85,600.12,600.79,2.40,0000 0000 0000 0000 000000
2017-01-04 01:09:54,0.40,1.12,0.00,19.82,24.15,27.49,14.78,46.88,1013.71,2039.03,3157.76,2824.15,3202.69,600.36,601.13,2.45,0000 0000 0000 0000 000000
2017-01-04 01:14:55,0.40,1.14,0.00,19.83,24.15,27.46,14.69,46.72,1013.70,2039.02,3149.86,2818.67,3196.75,600.13,600.87,2.50,0000 0000 0000 0000 000000
2017-01-04 01:19:56,0.38,1.16,0.00,19.82,24.14,27.60,14.57,46.88,1013.69,2039.03,3142.42,2813.54,3190.92,599.67,600.37,2.55,0000 0000 0000 0000 000000
2017-01-04 01:24:58,0.37,1.18,0.00,19.79,24.12,27.60,14.64,46.90,1013.69,2039.03,3135.32,2808.43,3185.13,599.93,600.73,2.60,0000 0000 0000 0000 000000
2017-01-04 01:29:59,0.38,1.19,0.00,19.78,24.12,27.55,14.65,46.90,1013.68,2039.04,3128.19,2803.28,3179.37,599.86,600.70,2.65,0000 0000 0000 0000 000000
2017-01-04 01:35:00,0.38,1.21,0.00,19.77,24.12,27.55,14.71,46.88,1013.69,2039.05,3120.95,2798.15,3173.52,600.03,600.85,2.71,0000 0000 0000 0000 000000
2017-01-04 01:40:02,0.43,1.24,0.00,19.76,24.10,27.47,14.65,46.89,1013.69,2039.08,3113.16,2792.59,3167.19,599.69,600.60,2.76,0000 0000 0000 0000 000000
2017-01-04 01:45:03,0.46,1.26,0.00,19.74,24.10,27.48,14.78,46.95,1013.69,2039.12,3104.22,2786.54,3160.27,600.04,600.96,2.81,0000 0000 0000 0000 000000
2017-01-04 01:50:05,0.44,1.28,0.00,19.73,24.09,27.42,14.64,46.87,1013.69,2039.13,3095.75,2780.69,3153.62,600.09,601.08,2.86,0000 0000 0000 0000 000000
2017-01-04 01:55:06,0.44,1.30,0.00,19.73,24.07,27.50,14.65,46.92,1013.69,2039.11,3087.43,2774.96,3147.25,600.31,601.24,2.91,0000 0000 0000 0000 000000
2017-01-04 02:00:07,0.46,1.33,0.00,19.72,24.07,27.50,14.70,46.92,1013.69,2039.21,3078.91,2769.14,3140.72,600.24,601.20,2.96,0000 0000 0000 0000 000000
2017-01-04 02:05:08,0.46,1.35,0.00,19.72,24.06,27.52,14.70,47.00,1013.67,2039.28,3070.16,2763.12,3134.08,599.99,601.01,3.01,0000 0000 0000 0000 000000
2017-01-04 02:10:09,0.47,1.37,0.00,19.70,24.05,27.51,14.66,47.13,1013.65,2039.33,3061.36,2757.12,3127.41,600.33,601.33,3.06,0000 0000 0000 0000 000000
2017-01-04 02:15:10,0.53,1.40,0.00,19.68,24.04,27.41,14.72,46.98,1013.66,2039.49,3051.45,2750.66,3120.04,600.14,601.26,3.11,0000 0000 0000 0000 000000
2017-01-04 02:20:12,0.45,1.42,0.00,19.66,24.03,27.51,14.63,47.06,1013.69,2039.58,3042.64,2744.68,3113.19,599.89,601.01,3.16,0000 0000 0000 0000 000000
2017-01-04 02:25:13,0.46,1.45,0.00,19.65,24.02,27.48,14.70,47.11,1013.65,2039.50,3034.26,2738.88,3106.60,600.02,601.15,3.21,0000 0000 0000 0000 000000
2017-01-04 02:30:15,0.68,1.48,0.00,19.64,24.02,27.45,14.68,47.08,1013.68,2039.56,3022.12,2731.07,3097.78,600.12,601.24,3.26,0000 0000 0000 0000 000000
2017-01-04 02:35:16,0.52,1.51,0.00,19.65,24.00,27.41,14.74,47.10,1013.69,2039.56,3010.62,2723.61,3089.43,600.09,601.20,3.31,0000 0000 0000 0000 000000
2017-01-04 02:40:17,0.46,1.53,0.00,19.63,24.00,27.43,14.68,47.01,1013.69,2039.34,3002.09,2717.53,3082.38,599.95,601.01,3.36,0000 0000 0000 0000 000000
2017-01-04 02:45:19,0.37,1.55,0.00,19.61,24.00,27.37,14.69,47.08,1013.69,2039.18,2994.60,2712.41,3076.59,600.29,601.55,3.41,0000 0000 0000 0000 000000
2017-01-04 02:50:20,0.39,1.57,0.00,19.61,23.98,27.41,14.70,46.97,1013.69,2039.30,2987.84,2707.65,3071.31,599.97,601.17,3.46,0000 0000 0000 0000 000000
2017-01-04 02:55:21,0.41,1.59,0.00,19.60,23.97,27.30,14.64,47.03,1013.69,2039.50,2980.76,2702.71,3065.85,600.11,601.32,3.51,0000 0000 0000 0000 000000
2017-01-04 03:00:22,0.41,1.61,0.00,19.60,23.97,27.31,14.67,47.03,1013.69,2039.52,2973.37,2697.62,3060.13,600.23,601.49,3.56,0000 0000 0000 0000 000000
2017-01-04 03:05:24,0.48,1.63,0.00,19.59,23.95,27.40,14.71,47.03,1013.69,2039.71,2965.22,2692.05,3053.82,599.93,601.16,3.61,0000 0000 0000 0000 000000
2017-01-04 03:10:25,0.67,1.67,0.00,19.57,23.95,27.38,14.62,46.96,1013.67,2039.86,2953.54,2684.57,3045.20,599.62,600.88,3.66,0000 0000 0000 0000 000000
2017-01-04 03:15:27,0.52,1.69,0.00,19.57,23.93,27.38,14.80,46.92,1013.68,2039.92,2943.50,2678.01,3037.73,600.50,601.64,3.71,0000 0000 0000 0000 000000
2017-01-04 03:20:28,0.48,1.72,0.00,19.57,23.92,27.30,14.64,46.95,1013.69,2039.92,2934.45,2672.07,3031.06,599.55,600.83,3.76,0000 0000 0000 0000 000000
2017-01-04 03:25:29,0.46,1.74,0.00,19.56,23.91,27.25,14.72,47.02,1013.69,2039.92,2926.06,2666.38,3024.66,599.97,601.26,3.81,0000 0000 0000 0000 000000
2017-01-04 03:30:31,0.43,1.77,0.70,19.55,23.90,27.31,14.74,46.96,1013.69,2039.91,2918.15,2661.02,3018.68,600.11,601.43,3.86,0000 0000 0000 0000 000000
2017-01-04 03:35:32,0.41,1.79,1.00,19.53,23.88,27.21,14.65,46.93,1013.69,2039.90,2910.82,2655.94,3012.92,600.20,601.51,3.91,0000 0000 0000 0000 000000
2017-01-04 03:40:34,0.43,1.81,1.00,19.53,23.87,27.32,14.72,46.98,1013.69,2039.92,2903.25,2650.70,3007.13,599.91,601.36,3.96,0000 0000 0000 0000 000000
2017-01-04 03:45:35,0.45,1.83,1.00,19.52,23.86,27.31,14.64,46.98,1013.69,2039.95,2895.51,2645.31,3001.22,599.94,601.31,4.01,0000 0000 0000 0000 000000
2017-01-04 03:50:36,0.47,1.85,1.00,19.52,23.85,27.27,14.66,46.98,1013.69,2039.94,2887.31,2639.73,2994.80,599.93,601.32,4.06,0000 0000 0000 0000 000000
2017-01-04 03:55:37,0.45,1.88,1.00,19.52,23.84,27.21,14.67,46.89,1013.69,2039.97,2879.27,2634.24,2988.66,599.98,601.32,4.11,0000 0000 0000 0000 000000
2017-01-04 04:00:38,0.46,1.90,0.27,19.51,23.82,27.21,14.64,46.94,1013.69,2039.98,2871.35,2628.83,2982.63,600.06,601.48,4.16,0000 0000 0000 0000 000000
2017-01-04 04:05:39,0.68,1.93,0.00,19.49,23.81,27.23,14.65,46.88,1013.69,2039.96,2860.14,2621.59,2974.37,600.06,601.51,4.21,0000 0000 0000 0000 000000
2017-01-04 04:10:40,0.70,1.97,0.00,19.46,23.80,27.31,14.67,46.97,1013.69,2039.98,2847.18,2613.24,2964.92,600.04,601.44,4.26,0000 0000 0000 0000 000000
2017-01-04 04:15:42,0.51,1.99,0.00,19.47,23.79,27.25,14.71,46.96,1013.69,2039.98,2837.74,2606.97,2957.88,600.27,601.70,4.31,0000 0000 0000 0000 000000
2017-01-04 04:20:43,0.46,2.02,0.00,19.43,23.77,27.22,14.67,47.04,1013.69,2039.99,2829.78,2601.55,2951.76,600.17,601.75,4.36,0000 0000 0000 0000 000000
2017-01-04 04:25:44,0.44,2.04,0.00,19.40,23.76,27.20,14.64,47.03,1013.69,2039.98,2822.20,2596.28,2945.85,599.96,601.58,4.41,0000 0000 0000 0000 000000
2017-01-04 04:30:46,0.42,2.06,0.77,19.41,23.75,27.22,14.65,47.00,1013.69,2039.99,2814.97,2591.25,2940.29,599.87,601.50,4.46,0000 0000 0000 0000 000000
2017-01-04 04:35:47,0.43,2.09,1.00,19.42,23.73,27.20,14.67,47.17,1013.69,2039.99,2807.84,2586.25,2934.67,599.86,601.51,4.51,0000 0000 0000 0000 000000
2017-01-04 04:40:48,0.46,2.11,1.00,19.45,23.72,27.30,14.67,47.16,1013.70,2039.99,2800.09,2580.97,2928.82,599.93,601.58,4.56,0000 0000 0000 0000 000000
2017-01-04 04:45:49,0.49,2.13,1.00,19.46,23.71,27.22,14.58,47.15,1013.69,2039.99,2792.07,2575.53,2922.70,599.29,600.86,4.61,0000 0000 0000 0000 000000
2017-01-04 04:50:51,0.56,2.16,1.00,19.47,23.70,27.21,14.73,47.31,1013.69,2039.99,2782.73,2569.34,2915.80,600.13,601.63,4.66,0000 0000 0000 0000 000000
2017-01-04 04:55:52,0.56,2.19,1.00,19.49,23.70,27.23,14.63,47.27,1013.70,2039.99,2773.26,2562.91,2908.50,599.97,601.62,4.71,0000 0000 0000 0000 000000
2017-01-04 05:00:54,0.46,2.21,0.20,19.48,23.69,27.21,14.71,47.30,1013.70,2039.99,2765.34,2557.58,2902.18,599.94,601.38,4.76,0000 0000 0000 0000 000000
2017-01-04 05:05:55,0.46,2.24,0.00,19.43,23.67,27.18,14.75,47.11,1013.70,2039.99,2757.64,2552.37,2896.25,600.15,601.70,4.81,0000 0000 0000 0000 000000
2017-01-04 05:10:56,0.40,2.26,0.00,19.41,23.67,27.11,14.71,47.10,1013.70,2039.99,2750.80,2547.52,2890.80,599.80,601.34,4.86,0000 0000 0000 0000 000000
2017-01-04 05:15:57,0.39,2.28,0.00,19.40,23.67,27.13,14.64,47.13,1013.69,2039.99,2744.56,2543.04,2885.81,599.87,601.57,4.91,0000 0000 0000 0000 000000
2017-01-04 05:20:58,0.34,2.30,0.00,19.35,23.66,27.09,14.70,47.17,1013.69,2039.99,2739.00,2539.06,2881.30,600.23,601.96,4.97,0000 0000 0000 0000 000000
2017-01-04 05:26:00,0.33,2.31,0.00,19.32,23.65,27.04,14.75,47.24,1013.69,2039.99,2733.71,2535.27,2877.22,600.08,601.85,5.02,0000 0000 0000 0000 000000
2017-01-04 05:31:01,0.33,2.33,0.00,19.30,23.64,27.08,14.70,47.32,1013.69,2039.99,2728.58,2531.47,2872.98,599.88,601.73,5.07,0000 0000 0000 0000 000000
2017-01-04 05:36:02,0.33,2.35,0.00,19.27,23.62,27.08,14.68,47.33,1013.71,2040.00,2723.49,2527.76,2868.77,599.98,601.89,5.12,0000 0000 0000 0000 000000
2017-01-04 05:41:04,0.31,2.36,0.00,19.24,23.62,27.05,14.70,47.37,1013.75,2040.01,2718.60,2524.16,2864.70,600.03,602.07,5.17,0000 0000 0000 0000 000000
2017-01-04 05:46:05,0.33,2.38,0.00,19.23,23.60,26.99,14.66,47.21,1013.97,2040.02,2713.86,2520.58,2860.43,599.86,602.01,5.22,0000 0000 0000 0000 000000
2017-01-04 05:51:06,0.35,2.40,0.00,19.23,23.60,27.05,14.70,47.24,1014.14,2040.01,2708.61,2516.68,2855.93,599.87,602.12,5.27,0000 0000 0000 0000 000000
2017-01-04 05:56:07,0.32,2.41,0.00,19.21,23.58,27.04,14.70,47.17,1014.17,2040.01,2703.67,2512.96,2851.60,599.94,602.26,5.32,0000 0000 0000 0000 000000
2017-01-04 06:01:08,0.35,2.43,0.00,19.20,23.57,26.98,14.73,47.33,1014.17,2040.01,2698.47,2509.13,2847.21,599.97,602.30,5.37,0000 0000 0000 0000 000000
2017-01-04 06:06:10,0.34,2.45,0.00,19.19,23.55,27.02,14.64,47.15,1014.18,2040.03,2693.11,2505.27,2842.89,599.75,602.12,5.42,0000 0000 0000 0000 000000
2017-01-04 06:11:11,0.35,2.47,0.00,19.18,23.55,27.01,14.65,47.22,1014.17,2040.03,2687.72,2501.31,2838.42,599.86,602.21,5.47,0000 0000 0000 0000 000000
2017-01-04 06:16:12,0.36,2.48,0.00,19.16,23.52,27.00,14.72,47.14,1014.17,2040.08,2682.54,2497.44,2834.00,599.84,602.33,5.52,0000 0000 0000 0000 000000
2017-01-04 06:21:14,0.34,2.50,0.00,19.14,23.51,26.97,14.71,47.23,1014.18,2040.07,2677.20,2493.72,2829.60,600.18,602.75,5.57,0000 0000 0000 0000 000000
2017-01-04 06:26:15,0.35,2.52,0.00,19.12,23.50,26.92,14.66,47.26,1014.18,2040.20,2672.03,2489.96,2825.23,599.77,602.22,5.62,0000 0000 0000 0000 000000
2017-01-04 06:31:16,0.32,2.54,0.00,19.12,23.48,26.86,14.68,47.18,1014.19,2040.24,2667.23,2486.44,2821.21,600.03,602.54,5.67,0000 0000 0000 0000 000000
2017-01-04 06:36:17,0.34,2.55,0.00,19.09,23.46,26.88,14.73,47.26,1014.18,2040.38,2662.46,2482.91,2817.31,599.71,602.38,5.72,0000 0000 0000 0000 000000
2017-01-04 06:41:19,0.35,2.57,0.00,19.08,23.45,26.87,14.67,47.23,1014.18,2040.65,2657.60,2479.33,2813.30,599.67,602.34,5.77,0000 0000 0000 0000 000000
2017-01-04 06:46:20,0.34,2.59,0.00,19.07,23.42,26.80,14.75,47.30,1014.21,2040.77,2652.72,2475.77,2809.22,600.13,602.73,5.82,0000 0000 0000 0000 000000
2017-01-04 06:51:21,0.33,2.60,0.00,19.06,23.41,26.85,14.61,47.21,1014.30,2040.82,2648.04,2472.21,2805.08,599.75,602.45,5.87,0000 0000 0000 0000 000000
2017-01-04 06:56:23,0.31,2.62,0.00,19.05,23.39,26.83,14.71,47.22,1014.26,2040.90,2643.46,2468.81,2801.25,599.86,602.52,5.92,0000 0000 0000 0000 000000
2017-01-04 07:01:23,0.32,2.64,0.00,19.03,23.37,26.83,14.72,47.23,1014.24,2040.96,2638.96,2465.46,2797.43,600.13,602.85,5.97,0000 0000 0000 0000 000000
2017-01-04 07:06:25,0.31,2.65,0.00,19.00,23.36,26.82,14.72,47.22,1014.25,2040.98,2634.27,2462.05,2793.60,599.86,602.59,6.02,0000 0000 0000 0000 000000
2017-01-04 07:11:26,0.32,2.67,0.00,18.99,23.35,26.77,14.69,47.33,1014.37,2040.98,2629.54,2458.58,2789.78,599.75,602.63,6.07,0000 0000 0000 0000 000000
2017-01-04 07:16:27,0.32,2.68,0.00,18.98,23.32,26.74,14.70,47.53,1014.48,2040.99,2624.76,2455.12,2786.00,600.26,603.29,6.12,0000 0000 0000 0000 000000
2017-01-04 07:21:28,0.29,2.70,0.00,18.96,23.31,26.70,14.82,47.45,1014.60,2040.99,2620.60,2451.88,2782.37,600.24,603.41,6.17,0000 0000 0000 0000 000000
2017-01-04 07:26:29,0.30,2.71,0.00,18.94,23.29,26.70,14.68,47.48,1014.65,2040.99,2616.36,2448.64,2778.47,599.88,603.02,6.22,0000 0000 0000 0000 000000
2017-01-04 07:31:30,0.29,2.73,0.00,18.92,23.27,26.72,14.71,47.52,1014.66,2041.00,2611.95,2445.45,2774.89,599.92,603.19,6.27,0000 0000 0000 0000 000000
2017-01-04 07:36:32,0.30,2.74,0.00,18.90,23.26,26.69,14.65,47.43,1014.66,2041.00,2607.71,2442.22,2771.25,599.92,603.19,6.32,0000 0000 0000 0000 000000
2017-01-04 07:41:33,0.29,2.76,0.00,18.89,23.24,26.69,14.72,47.54,1014.66,2041.00,2603.60,2439.08,2767.69,599.48,602.79,6.37,0000 0000 0000 0000 000000
2017-01-04 07:46:34,0.29,2.77,0.00,18.88,23.23,26.69,14.75,47.48,1014.67,2041.02,2599.49,2435.96,2764.06,599.68,602.97,6.42,0000 0000 0000 0000 000000
2017-01-04 07:51:35,0.29,2.79,0.00,18.86,23.22,26.73,14.64,47.54,1014.66,2041.03,2595.18,2432.87,2760.56,599.85,603.13,6.47,0000 0000 0000 0000 000000
2017-01-04 07:56:36,0.28,2.80,0.00,18.85,23.19,26.67,14.76,47.56,1014.67,2041.05,2591.04,2429.85,2757.14,599.99,603.43,6.52,0000 0000 0000 0000 000000
2017-01-04 08:01:37,0.30,2.82,0.00,18.82,23.19,26.59,14.68,47.58,1014.68,2041.12,2586.87,2426.78,2753.72,599.52,603.01,6.57,0000 0000 0000 0000 000000
2017-01-04 08:06:38,0.28,2.83,0.00,18.82,23.17,26.57,14.70,47.61,1014.67,2041.15,2582.82,2423.72,2750.26,599.75,603.16,6.62,0000 0000 0000 0000 000000
2017-01-04 08:11:39,0.33,2.85,0.00,18.81,23.15,26.54,14.82,47.71,1014.74,2041.51,2578.74,2420.73,2747.02,599.99,603.53,6.67,0000 0000 0000 0000 000000
2017-01-04 08:16:41,0.28,2.86,0.00,18.78,23.14,26.57,14.81,47.70,1014.95,2041.58,2574.82,2417.67,2743.47,600.19,603.93,6.72,0000 0000 0000 0000 000000
2017-01-04 08:21:41,0.32,2.88,0.00,18.76,23.12,26.51,14.66,47.55,1014.95,2041.73,2570.64,2414.47,2739.72,599.37,603.15,6.77,0000 0000 0000 0000 000000
2017-01-04 08:26:43,0.31,2.89,0.00,18.76,23.12,26.47,14.82,47.42,1015.10,2041.84,2566.65,2411.24,2735.86,600.15,604.07,6.82,0000 0000 0000 0000 000000
2017-01-04 08:31:44,0.29,2.91,0.00,18.74,23.10,26.52,14.85,47.59,1015.15,2041.75,2562.36,2408.08,2732.13,600.57,604.39,6.87,0000 0000 0000 0000 000000
2017-01-04 08:36:45,0.31,2.93,0.00,18.72,23.09,26.55,14.75,47.48,1015.14,2041.84,2558.30,2404.95,2728.70,600.11,603.98,6.92,0000 0000 0000 0000 000000
2017-01-04 08:41:46,0.30,2.94,0.00,18.70,23.07,26.59,14.80,47.52,1015.15,2041.91,2554.18,2401.80,2725.15,600.01,603.99,6.97,0000 0000 0000 0000 000000
2017-01-04 08:46:48,0.31,2.96,0.00,18.69,23.07,26.52,14.78,47.48,1015.15,2041.95,2550.00,2398.63,2721.57,600.07,603.93,7.02,0000 0000 0000 0000 000000
2017-01-04 08:51:49,0.30,2.97,0.00,18.67,23.05,26.49,14.76,47.43,1015.15,2041.97,2545.77,2395.46,2718.01,600.29,604.46,7.07,0000 0000 0000 0000 000000
2017-01-04 08:56:50,0.29,2.99,0.00,18.67,23.03,26.55,14.79,47.53,1015.15,2041.97,2541.70,2392.46,2714.60,600.01,604.01,7.12,0000 0000 0000 0000 000000
2017-01-04 09:01:52,0.28,3.00,0.00,18.64,23.02,26.51,14.72,47.48,1015.15,2041.98,2537.89,2389.55,2711.19,600.09,604.26,7.17,0000 0000 0000 0000 000000
2017-01-04 09:06:53,0.28,3.01,0.00,18.62,23.00,26.44,14.80,47.56,1015.15,2041.97,2534.00,2386.58,2707.75,600.13,604.25,7.22,0000 0000 0000 0000 000000
2017-01-04 09:11:54,0.26,3.03,0.00,18.62,22.99,26.47,14.84,47.49,1015.15,2041.99,2530.34,2383.80,2704.58,600.51,604.62,7.27,0000 0000 0000 0000 000000
2017-01-04 09:16:55,0.26,3.04,0.00,18.61,22.97,26.44,14.74,47.52,1015.18,2041.99,2526.71,2381.12,2701.59,599.85,604.00,7.32,0000 0000 0000 0000 000000
2017-01-04 09:21:56,0.27,3.06,0.00,18.59,22.95,26.42,14.85,47.56,1015.26,2041.99,2522.91,2378.31,2698.45,600.23,604.46,7.37,0000 0000 0000 0000 000000
2017-01-04 09:26:58,0.28,3.07,0.00,18.56,22.94,26.48,14.75,47.70,1015.34,2041.99,2519.06,2375.50,2695.25,599.90,604.17,7.42,0000 0000 0000 0000 000000
2017-01-04 09:31:59,0.30,3.09,0.00,18.56,22.92,26.40,14.82,47.84,1015.57,2041.99,2514.91,2372.45,2691.91,600.03,604.51,7.48,0000 0000 0000 0000 000000
2017-01-04 09:37:00,0.30,3.10,0.00,18.54,22.90,26.34,14.75,47.89,1015.57,2042.01,2510.81,2369.29,2688.30,600.04,604.64,7.53,0000 0000 0000 0000 000000
2017-01-04 09:42:02,0.29,3.12,0.00,18.53,22.89,26.35,14.87,47.75,1015.36,2042.02,2506.57,2366.30,2684.83,600.22,604.64,7.58,0000 0000 0000 0000 000000
2017-01-04 09:47:03,0.30,3.13,0.00,18.51,22.88,26.32,14.81,47.73,1015.22,2042.02,2502.41,2363.26,2681.30,600.07,604.33,7.63,0000 0000 0000 0000 000000
2017-01-04 09:52:04,0.30,3.15,0.00,18.50,22.87,26.30,14.78,47.75,1015.22,2042.08,2498.38,2360.25,2677.92,600.12,604.39,7.68,0000 0000 0000 0000 000000
2017-01-04 09:57:05,0.29,3.16,0.00,18.47,22.85,26.29,14.77,47.73,1015.22,2042.13,2494.67,2357.26,2674.51,599.92,604.38,7.73,0000 0000 0000 0000 000000
2017-01-04 10:02:06,0.31,3.18,0.00,18.47,22.84,26.23,14.80,47.71,1015.25,2042.31,2490.77,2354.29,2671.12,599.86,604.35,7.78,0000 0000 0000 0000 000000
2017-01-04 10:07:08,0.31,3.19,0.00,18.46,22.82,26.28,14.85,47.77,1015.30,2042.45,2486.85,2351.38,2667.75,600.38,604.94,7.83,0000 0000 0000 0000 000000
2017-01-04 10:12:09,0.29,3.21,0.00,18.44,22.81,26.24,14.76,47.73,1015.39,2042.70,2483.34,2348.54,2664.44,599.68,604.31,7.88,0000 0000 0000 0000 000000
2017-01-04 10:17:11,0.27,3.22,0.00,18.43,22.79,26.27,14.72,47.57,1015.57,2042.83,2479.97,2345.87,2661.31,599.76,604.53,7.93,0000 0000 0000 0000 000000
2017-01-04 10:22:12,0.28,3.24,0.00,18.42,22.78,26.31,14.81,47.62,1015.64,2042.91,2476.33,2343.17,2658.18,600.33,605.25,7.98,0000 0000 0000 0000 000000
2017-01-04 10:27:13,0.29,3.25,0.00,18.39,22.76,26.23,14.79,47.70,1015.64,2042.94,2472.42,2340.28,2654.95,599.99,604.90,8.03,0000 0000 0000 0000 000000
2017-01-04 10:32:15,0.29,3.27,0.00,18.37,22.74,26.25,14.80,47.77,1015.64,2042.91,2468.40,2337.31,2651.62,600.26,605.17,8.08,0000 0000 0000 0000 000000
2017-01-04 10:37:16,0.29,3.28,0.00,18.38,22.72,26.23,14.76,47.77,1015.65,2042.96,2464.59,2334.41,2648.37,599.82,604.84,8.13,0000 0000 0000 0000 000000
2017-01-04 10:42:17,0.29,3.30,0.00,18.36,22.72,26.18,14.86,47.79,1015.64,2042.98,2460.68,2331.57,2645.18,600.26,605.26,8.18,0000 0000 0000 0000 000000
2017-01-04 10:47:18,0.28,3.31,0.00,18.33,22.69,26.15,14.75,47.84,1015.69,2042.99,2456.90,2328.68,2641.94,599.87,605.19,8.23,0000 0000 0000 0000 000000
2017-01-04 10:52:20,0.29,3.33,0.00,18.31,22.68,26.13,14.66,47.79,1015.70,2042.99,2453.15,2325.83,2638.70,599.70,604.77,8.28,0000 0000 0000 0000 000000
2017-01-04 10:57:21,0.27,3.34,0.00,18.29,22.67,26.11,14.79,47.52,1015.77,2042.99,2449.66,2323.13,2635.45,599.90,605.07,8.33,0000 0000 0000 0000 000000
2017-01-04 11:02:22,0.26,3.35,0.00,18.27,22.65,26.11,14.80,47.64,1015.84,2043.01,2446.30,2320.50,2632.36,600.19,605.40,8.38,0000 0000 0000 0000 000000
2017-01-04 11:07:24,0.26,3.37,0.00,18.28,22.63,26.10,14.74,47.62,1015.73,2043.02,2442.88,2317.90,2629.32,599.86,604.98,8.43,0000 0000 0000 0000 000000
2017-01-04 11:12:25,0.27,3.38,0.00,18.26,22.62,26.12,14.85,47.61,1015.95,2043.02,2439.40,2315.24,2626.26,600.32,605.64,8.48,0000 0000 0000 0000 000000
2017-01-04 11:17:26,0.26,3.39,0.00,18.25,22.60,26.11,14.73,47.64,1016.05,2043.01,2435.86,2312.61,2623.41,599.89,605.24,8.53,0000 0000 0000 0000 000000
2017-01-04 11:22:27,0.27,3.41,0.00,18.23,22.58,26.07,14.81,47.68,1016.02,2043.03,2432.18,2309.89,2620.61,600.02,605.34,8.58,0000 0000 0000 0000 000000
2017-01-04 11:27:28,0.28,3.42,0.00,18.22,22.56,26.08,14.79,47.68,1016.10,2043.05,2428.63,2307.25,2617.65,599.98,605.56,8.63,0000 0000 0000 0000 000000
2017-01-04 11:32:30,0.28,3.44,0.00,18.20,22.54,26.03,14.83,47.73,1016.10,2043.13,2425.25,2304.62,2614.56,600.09,605.63,8.68,0000 0000 0000 0000 000000
2017-01-04 11:37:31,0.28,3.45,0.00,18.19,22.52,25.99,14.79,47.67,1016.06,2043.28,2421.80,2302.10,2611.57,599.98,605.53,8.73,0000 0000 0000 0000 000000
2017-01-04 11:42:33,0.26,3.46,0.00,18.17,22.51,25.98,14.77,47.68,1016.10,2043.29,2418.39,2299.46,2608.53,599.96,605.47,8.78,0000 0000 0000 0000 000000
2017-01-04 11:47:34,0.31,3.48,0.00,18.14,22.49,25.90,14.87,47.56,1016.11,2043.64,2415.01,2296.89,2605.58,600.22,605.88,8.83,0000 0000 0000 0000 000000
2017-01-04 11:52:35,0.28,3.49,0.00,18.14,22.48,26.02,14.86,47.80,1016.02,2043.91,2411.53,2294.30,2602.69,599.99,605.62,8.88,0000 0000 0000 0000 000000
2017-01-04 11:57:36,0.27,3.51,0.00,18.12,22.46,25.98,14.83,47.82,1016.04,2043.95,2408.11,2291.66,2599.73,599.91,605.72,8.93,0000 0000 0000 0000 000000
2017-01-04 12:02:38,0.26,3.52,0.00,18.11,22.44,25.91,14.83,47.73,1016.07,2043.97,2404.93,2289.12,2596.63,599.87,605.48,8.98,0000 0000 0000 0000 000000
2017-01-04 12:07:39,0.26,3.53,0.00,18.11,22.43,25.90,14.82,47.77,1016.13,2043.96,2401.46,2286.54,2593.70,599.74,605.53,9.03,0000 0000 0000 0000 000000
2017-01-04 12:12:40,0.28,3.55,0.00,18.09,22.42,25.89,14.79,47.80,1016.12,2043.98,2397.85,2283.93,2590.88,599.97,605.76,9.08,0000 0000 0000 0000 000000
2017-01-04 12:17:42,0.28,3.56,0.00,18.07,22.40,25.82,14.79,47.74,1016.13,2043.99,2394.24,2281.29,2587.93,600.41,606.23,9.13,0000 0000 0000 0000 000000
2017-01-04 12:22:43,0.27,3.58,0.00,18.06,22.39,25.83,14.71,47.81,1016.13,2043.99,2390.80,2278.63,2584.97,599.51,605.31,9.18,0000 0000 0000 0000 000000
2017-01-04 12:27:45,0.27,3.59,0.00,18.03,22.37,25.88,14.81,47.91,1016.15,2043.99,2387.33,2276.03,2581.95,599.83,605.77,9.23,0000 0000 0000 0000 000000
2017-01-04 12:32:46,0.29,3.61,0.00,18.02,22.36,25.85,14.83,47.93,1016.23,2044.00,2383.74,2273.29,2578.85,600.09,606.06,9.28,0000 0000 0000 0000 000000
2017-01-04 12:37:47,0.29,3.62,0.00,18.02,22.34,25.84,14.80,47.93,1016.28,2044.00,2380.12,2270.57,2575.83,599.71,605.75,9.33,0000 0000 0000 0000 000000
2017-01-04 12:42:48,0.28,3.64,0.00,17.99,22.33,25.77,14.83,47.92,1016.23,2044.01,2376.62,2267.89,2572.79,599.81,605.79,9.38,0000 0000 0000 0000 000000
2017-01-04 12:47:50,0.28,3.65,0.00,17.98,22.32,25.76,14.83,47.98,1016.26,2044.02,2373.17,2265.23,2569.76,600.13,606.24,9.43,0000 0000 0000 0000 000000
2017-01-04 12:52:51,0.29,3.66,0.00,17.97,22.31,25.72,14.84,48.27,1016.29,2044.03,2369.55,2262.53,2566.78,599.79,605.96,9.48,0000 0000 0000 0000 000000
2017-01-04 12:57:53,0.27,3.68,0.00,17.98,22.29,25.80,14.85,48.21,1016.32,2044.06,2366.49,2259.92,2563.69,600.12,606.31,9.53,0000 0000 0000 0000 000000
2017-01-04 13:02:54,0.28,3.69,0.00,17.95,22.29,25.81,14.81,48.11,1016.57,2044.05,2363.08,2257.26,2560.58,599.84,606.19,9.58,0000 0000 0000 0000 000000